Weather History for Robinson, IL

Change the Weather History Date:

Monday, December 3, 2012

  Actual Average (KLWV) Record (KLWV)
Temperature  
Mean Temperature 67 °F 39 °F  
Max Temperature 73 °F 47 °F 73 °F (2012)
Min Temperature 61 °F 31 °F 17 °F (2006)
Degree Days  
Heating Degree Days 0 26  
Month to date heating degree days 77  
Since 1 July heating degree days 935  
Cooling Degree Days 2 0  
Month to date cooling degree days 0  
Year to date cooling degree days 1387  
Growing Degree Days 17 (Base 50)    
Moisture  
Dew Point 60 °F    
Average Humidity 81    
Maximum Humidity 100    
Minimum Humidity 60    
Precipitation  
Precipitation 0.00 in 0.12 in 2.32 in (1982)
Month to date precipitation 0.36  
Year to date precipitation 40.85  
Sea Level Pressure  
Sea Level Pressure 30.05 in    
Wind  
Wind Speed 12 mph (South)    
Max Wind Speed 25 mph    
Max Gust Speed 32 mph    
Visibility 10 miles    
Events      
T = Trace of Precipitation, MM = Missing Value Source: NWS Daily Summary

Daily Weather History Graph

Daily Weather History Graph

Search for Another Location

Airport:

Trip Planner

Search our weather history database for the weather conditions in past years. The results will help you decide how hot, cold, wet, or windy it might be!

Date:

Astronomy

Dec. 03, 2012 Rise Set
Actual Time 6:52 AM CST 4:28 PM CST
Civil Twilight 6:23 AM CST 4:57 PM CST
Nautical Twilight 5:50 AM CST 5:31 PM CST
Astronomical Twilight 5:17 AM CST 6:03 PM CST
Moon 9:13 PM CST (12/3) 10:17 AM CST (12/3)
Length of Visible Light 10h 34m
Length of Day
9h 35m
Waning Gibbous, 78% of the Moon is Illuminated
Dec 3
Waning Gibbous
Dec 6
Last Quarter
Dec 13
New
Dec 19
First Quarter
Dec 28
Full

Hourly Weather History & Observations

Time (CST) Temp. Dew Point Humidity Pressure Visibility Wind Dir Wind Speed Gust Speed Precip Events Conditions
12:15 AM 62.6 °F 62.6 °F 100% 30.10 in 7.0 mi SSE 8.1 mph - N/A   Overcast
12:35 AM 62.8 °F 62.6 °F 99% 30.09 in 7.0 mi SSE 9.2 mph - N/A   Overcast
12:55 AM 63.0 °F 62.6 °F 99% 30.09 in 7.0 mi SSE 9.2 mph - N/A   Overcast
1:15 AM 63.0 °F 62.6 °F 99% 30.09 in 10.0 mi SSE 9.2 mph - N/A   Overcast
1:35 AM 63.0 °F 62.6 °F 99% 30.09 in 7.0 mi SSE 9.2 mph - N/A   Overcast
1:55 AM 63.5 °F 62.8 °F 97% 30.09 in 10.0 mi South 10.4 mph - N/A   Overcast
2:15 AM 63.3 °F 62.8 °F 98% 30.09 in 10.0 mi South 8.1 mph - N/A   Overcast
2:35 AM 63.7 °F 62.8 °F 97% 30.09 in 10.0 mi South 9.2 mph - N/A   Overcast
2:55 AM 64.0 °F 63.0 °F 96% 30.09 in 10.0 mi South 10.4 mph - N/A   Overcast
3:15 AM 64.0 °F 63.0 °F 96% 30.09 in 10.0 mi South 9.2 mph - N/A   Overcast
3:35 AM 64.0 °F 63.0 °F 96% 30.09 in 10.0 mi South 8.1 mph - N/A   Overcast
3:55 AM 64.0 °F 63.0 °F 96% 30.08 in 10.0 mi South 8.1 mph - N/A   Overcast
4:15 AM 63.9 °F 62.8 °F 96% 30.08 in 10.0 mi South 8.1 mph - N/A   Overcast
4:35 AM 64.4 °F 63.0 °F 95% 30.08 in 10.0 mi South 6.9 mph - N/A   Overcast
4:55 AM 64.4 °F 63.0 °F 95% 30.08 in 10.0 mi South 6.9 mph - N/A   Overcast
5:15 AM 64.0 °F 63.0 °F 96% 30.08 in 10.0 mi SSE 9.2 mph - N/A   Overcast
5:35 AM 64.4 °F 63.0 °F 95% 30.07 in 10.0 mi SSE 9.2 mph - N/A   Overcast
5:55 AM 64.0 °F 62.8 °F 96% 30.08 in 10.0 mi South 9.2 mph - N/A   Mostly Cloudy
6:15 AM 63.5 °F 62.4 °F 96% 30.08 in 10.0 mi South 11.5 mph - N/A   Mostly Cloudy
6:35 AM 63.5 °F 62.2 °F 96% 30.08 in 10.0 mi South 10.4 mph 19.6 mph N/A   Mostly Cloudy
6:55 AM 62.8 °F 62.1 °F 97% 30.09 in 10.0 mi South 11.5 mph - N/A   Mostly Cloudy
7:15 AM 62.4 °F 61.7 °F 97% 30.09 in 10.0 mi SSE 10.4 mph - N/A   Scattered Clouds
7:35 AM 61.9 °F 61.7 °F 99% 30.09 in 7.0 mi SSE 11.5 mph - N/A   Clear
7:55 AM 62.4 °F 61.7 °F 97% 30.09 in 10.0 mi SSE 10.4 mph - N/A   Clear
8:15 AM 63.3 °F 61.9 °F 95% 30.09 in 10.0 mi SSE 12.7 mph - N/A   Clear
8:35 AM 64.0 °F 61.9 °F 93% 30.08 in 10.0 mi South 12.7 mph 17.3 mph N/A   Clear
8:55 AM 64.8 °F 61.7 °F 90% 30.08 in 10.0 mi South 15.0 mph - N/A   Clear
9:15 AM 65.5 °F 61.9 °F 88% 30.08 in 10.0 mi South 15.0 mph - N/A   Clear
9:35 AM 66.4 °F 62.2 °F 86% 30.08 in 10.0 mi South 13.8 mph - N/A   Scattered Clouds
9:55 AM 67.5 °F 62.4 °F 84% 30.08 in 10.0 mi South 15.0 mph - N/A   Scattered Clouds
10:15 AM 68.9 °F 63.0 °F 81% 30.07 in 10.0 mi South 15.0 mph 19.6 mph N/A   Mostly Cloudy
10:55 AM 69.3 °F 63.0 °F 80% 30.05 in 10.0 mi South 13.8 mph 24.2 mph N/A   Scattered Clouds
11:15 AM 70.0 °F 60.8 °F 73% 30.05 in 10.0 mi South 15.0 mph 26.5 mph N/A   Scattered Clouds
11:35 AM 71.8 °F 61.7 °F 70% 30.04 in 10.0 mi South 16.1 mph 24.2 mph N/A   Mostly Cloudy
11:55 AM 73.0 °F 60.8 °F 65% 30.03 in 10.0 mi South 20.7 mph 32.2 mph N/A   Scattered Clouds
12:15 PM 73.8 °F 61.3 °F 65% 30.02 in 10.0 mi South 18.4 mph 25.3 mph N/A   Clear
12:35 PM 73.8 °F 60.3 °F 63% 30.02 in 10.0 mi South 19.6 mph 31.1 mph N/A   Clear
12:55 PM 73.4 °F 60.3 °F 63% 30.02 in 10.0 mi South 17.3 mph 23.0 mph N/A   Clear
1:15 PM 73.0 °F 60.8 °F 65% 30.01 in 10.0 mi South 18.4 mph - N/A   Clear
1:35 PM 73.0 °F 60.6 °F 65% 30.01 in 10.0 mi South 19.6 mph - N/A   Clear
1:55 PM 72.7 °F 60.3 °F 65% 30.00 in 10.0 mi South 17.3 mph 23.0 mph N/A   Clear
2:15 PM 72.7 °F 59.5 °F 63% 30.01 in 10.0 mi South 23.0 mph 27.6 mph N/A   Scattered Clouds
2:35 PM 71.8 °F 58.1 °F 62% 30.01 in 10.0 mi SSW 18.4 mph - N/A   Clear
2:55 PM 71.6 °F 59.0 °F 64% 30.01 in 10.0 mi South 15.0 mph 18.4 mph N/A   Clear
3:15 PM 72.0 °F 59.0 °F 64% 30.01 in 10.0 mi South 12.7 mph 18.4 mph N/A   Clear
3:35 PM 71.6 °F 57.2 °F 60% 30.01 in 10.0 mi South 25.3 mph 31.1 mph N/A   Clear
3:55 PM 70.2 °F 57.4 °F 64% 30.01 in 10.0 mi South 18.4 mph 24.2 mph N/A   Clear
4:15 PM 69.1 °F 57.9 °F 68% 30.00 in 10.0 mi South 17.3 mph - N/A   Clear
4:35 PM 68.5 °F 57.6 °F 68% 30.00 in 10.0 mi South 19.6 mph 28.8 mph N/A   Clear
4:55 PM 67.8 °F 57.6 °F 70% 30.01 in 10.0 mi South 13.8 mph - N/A   Clear
5:15 PM 67.1 °F 58.1 °F 73% 30.01 in 10.0 mi South 15.0 mph 19.6 mph N/A   Clear
5:35 PM 66.7 °F 58.1 °F 74% 30.02 in 10.0 mi South 15.0 mph 21.9 mph N/A   Clear
5:55 PM 66.4 °F 58.1 °F 75% 30.02 in 10.0 mi SSE 13.8 mph 20.7 mph N/A   Clear
6:15 PM 66.0 °F 58.3 °F 76% 30.02 in 10.0 mi South 15.0 mph 18.4 mph N/A   Clear
6:55 PM 65.5 °F 58.5 °F 78% 30.02 in 10.0 mi South 13.8 mph 18.4 mph N/A   Clear
7:15 PM 65.5 °F 58.6 °F 79% 30.01 in 10.0 mi South 16.1 mph - N/A   Clear
7:35 PM 65.7 °F 58.5 °F 78% 30.02 in 10.0 mi South 11.5 mph - N/A   Clear
7:55 PM 64.4 °F 58.3 °F 80% 30.02 in 10.0 mi South 9.2 mph - N/A   Clear
8:15 PM 64.2 °F 58.6 °F 82% 30.03 in 10.0 mi South 10.4 mph - N/A   Scattered Clouds
8:35 PM 64.9 °F 58.5 °F 79% 30.03 in 10.0 mi South 11.5 mph - N/A   Overcast
8:55 PM 65.3 °F 57.7 °F 76% 30.03 in 10.0 mi South 10.4 mph - N/A   Overcast
9:15 PM 66.2 °F 56.3 °F 70% 30.03 in 10.0 mi South 15.0 mph - N/A   Overcast
9:35 PM 66.0 °F 55.4 °F 69% 30.03 in 10.0 mi South 16.1 mph - N/A   Overcast
9:55 PM 66.4 °F 54.7 °F 66% 30.02 in 10.0 mi South 16.1 mph - N/A   Overcast
10:15 PM 66.2 °F 54.0 °F 65% 30.02 in 10.0 mi South 13.8 mph - N/A   Mostly Cloudy
10:35 PM 65.3 °F 53.6 °F 66% 30.02 in 10.0 mi South 15.0 mph - N/A   Scattered Clouds
10:55 PM 64.0 °F 53.4 °F 68% 30.03 in 10.0 mi South 13.8 mph 18.4 mph N/A   Clear
11:15 PM 63.7 °F 53.1 °F 68% 30.02 in 10.0 mi South 11.5 mph - N/A   Clear
11:35 PM 63.1 °F 53.1 °F 70% 30.02 in 10.0 mi South 9.2 mph - N/A   Clear
11:55 PM 62.8 °F 53.1 °F 71% 30.02 in 10.0 mi South 10.4 mph - N/A   Clear